When you browse on this site, cookies collect data to enhance your experience and personalize the content and advertising you see.
Visit our Privacy Policy to learn more. By continuing to use the site, you agree to this use of cookies and data.
  • în România
  • Lista ţărilor
  • Pe 7 zile
  • Temperatura apei
  • Hartă satelitară
  • Meteo pe hartă
  • Widget-uri
  • user-avatar
    Intrare

    Meteo pe oră la Booué

    Astăzi, 22 Martie, Vineri

    Timp Temperatura Precipitaţii Vânt Presiune Umiditate
    00:00 +26°C° 0.8 mm 1 m/s 733 mmHg 92%
    01:00 +26°C° 0.8 mm 1 m/s 733 mmHg 93%
    02:00 +26°C° 0.1 mm 1 m/s 732 mmHg 94%
    03:00 +26°C° 0.1 mm 1 m/s 732 mmHg 94%
    04:00 +25°C° 0.1 mm 1 m/s 732 mmHg 95%
    05:00 +26°C° 0 mm 1 m/s 732 mmHg 94%
    06:00 +26°C° 0 mm 1 m/s 733 mmHg 94%
    07:00 +24°C° 0 mm 0 m/s 733 mmHg 93%
    08:00 +27°C° 2.7 mm 1 m/s 733 mmHg 93%
    09:00 +27°C° 2.7 mm 1 m/s 734 mmHg 92%
    10:00 +28°C° 2.7 mm 1 m/s 734 mmHg 91%
    11:00 +28°C° 0.7 mm 1 m/s 734 mmHg 89%
    12:00 +28°C° 0.7 mm 1 m/s 733 mmHg 87%
    13:00 +28°C° 0.7 mm 1 m/s 733 mmHg 85%
    14:00 +30°C° 0 mm 1 m/s 732 mmHg 77%
    15:00 +31°C° 0 mm 1 m/s 732 mmHg 69%
    16:00 +32°C° 0 mm 1 m/s 731 mmHg 60%
    17:00 +30°C° 0 mm 1 m/s 731 mmHg 68%
    18:00 +29°C° 0 mm 1 m/s 732 mmHg 76%
    19:00 +27°C° 0 mm 1 m/s 732 mmHg 84%
    20:00 +27°C° 0 mm 1 m/s 732 mmHg 85%
    21:00 +26°C° 0 mm 1 m/s 733 mmHg 86%
    22:00 +26°C° 0 mm 1 m/s 733 mmHg 88%
    23:00 +25°C° 0 mm 1 m/s 733 mmHg 89%

    Mâine, 23 Martie, Sâmbătă

    Timp Temperatura Precipitaţii Vânt Presiune Umiditate
    00:00 +25°C° 0 mm 1 m/s 733 mmHg 91%
    01:00 +25°C° 0 mm 1 m/s 734 mmHg 93%
    02:00 +25°C° 0 mm 1 m/s 734 mmHg 93%
    03:00 +25°C° 0 mm 1 m/s 734 mmHg 94%
    04:00 +25°C° 0 mm 1 m/s 734 mmHg 95%
    05:00 +25°C° 0.1 mm 1 m/s 734 mmHg 94%
    06:00 +25°C° 0.1 mm 1 m/s 734 mmHg 94%
    07:00 +26°C° 0.1 mm 1 m/s 734 mmHg 93%
    08:00 +27°C° 0 mm 1 m/s 735 mmHg 84%
    09:00 +29°C° 0 mm 2 m/s 735 mmHg 76%
    10:00 +31°C° 0 mm 2 m/s 735 mmHg 67%
    11:00 +32°C° 0 mm 2 m/s 735 mmHg 62%
    12:00 +33°C° 0 mm 1 m/s 734 mmHg 57%
    13:00 +34°C° 0 mm 1 m/s 734 mmHg 52%
    14:00 +34°C° 0 mm 1 m/s 733 mmHg 54%
    15:00 +33°C° 0 mm 1 m/s 732 mmHg 56%
    16:00 +33°C° 0 mm 1 m/s 731 mmHg 58%
    17:00 +31°C° 0.1 mm 1 m/s 732 mmHg 66%
    18:00 +30°C° 0.1 mm 1 m/s 732 mmHg 74%
    19:00 +28°C° 0.1 mm 1 m/s 733 mmHg 82%
    20:00 +27°C° 1.4 mm 1 m/s 733 mmHg 85%
    21:00 +26°C° 1.4 mm 1 m/s 734 mmHg 88%
    22:00 +26°C° 1.4 mm 1 m/s 734 mmHg 91%
    23:00 +25°C° 0 mm 1 m/s 734 mmHg 92%

    Poimâine, 24 Martie, Duminică

    Timp Temperatura Precipitaţii Vânt Presiune Umiditate
    00:00 +25°C° 0 mm 1 m/s 734 mmHg 93%
    01:00 +25°C° 0 mm 1 m/s 734 mmHg 93%
    02:00 +24°C° 0 mm 1 m/s 733 mmHg 94%
    03:00 +24°C° 0 mm 1 m/s 733 mmHg 95%
    04:00 +24°C° 0 mm 1 m/s 733 mmHg 95%
    05:00 +24°C° 0 mm 1 m/s 733 mmHg 95%
    06:00 +24°C° 0 mm 1 m/s 734 mmHg 95%
    07:00 +22°C° 0 mm 0 m/s 734 mmHg 95%
    08:00 +25°C° 0 mm 0 m/s 735 mmHg 84%
    09:00 +28°C° 0 mm 0 m/s 736 mmHg 72%
    10:00 +30°C° 0 mm 0 m/s 736 mmHg 60%
    11:00 +33°C° 0.3 mm 1 m/s 736 mmHg 58%
    12:00 +34°C° 0.3 mm 1 m/s 735 mmHg 56%
    13:00 +34°C° 0.3 mm 1 m/s 734 mmHg 54%
    14:00 +33°C° 1 mm 1 m/s 733 mmHg 64%
    15:00 +31°C° 1 mm 1 m/s 732 mmHg 74%
    16:00 +30°C° 1 mm 1 m/s 732 mmHg 84%
    17:00 +29°C° 0.1 mm 1 m/s 732 mmHg 86%
    18:00 +25°C° 0.1 mm 0 m/s 732 mmHg 89%
    19:00 +24°C° 0.1 mm 0 m/s 732 mmHg 92%
    20:00 +24°C° 0.2 mm 0 m/s 733 mmHg 93%
    21:00 +23°C° 0.2 mm 0 m/s 734 mmHg 94%
    22:00 +25°C° 0.2 mm 1 m/s 734 mmHg 94%
    23:00 +25°C° 0 mm 1 m/s 734 mmHg 95%

    25 Martie, Luni

    Timp Temperatura Precipitaţii Vânt Presiune Umiditate
    00:00 +24°C° 0 mm 1 m/s 734 mmHg 95%
    01:00 +24°C° 0 mm 1 m/s 734 mmHg 96%
    02:00 +24°C° 0 mm 1 m/s 733 mmHg 97%
    03:00 +24°C° 0 mm 1 m/s 733 mmHg 97%
    04:00 +23°C° 0 mm 1 m/s 733 mmHg 98%
    05:00 +22°C° 0 mm 0 m/s 733 mmHg 97%
    06:00 +22°C° 0 mm 0 m/s 734 mmHg 96%
    07:00 +22°C° 0 mm 0 m/s 734 mmHg 95%
    08:00 +25°C° 0 mm 0 m/s 735 mmHg 82%
    09:00 +30°C° 0 mm 1 m/s 735 mmHg 69%
    10:00 +33°C° 0 mm 1 m/s 735 mmHg 56%
    11:00 +33°C° 0 mm 1 m/s 735 mmHg 52%
    12:00 +34°C° 0 mm 1 m/s 734 mmHg 48%
    13:00 +35°C° 0 mm 1 m/s 733 mmHg 45%
    14:00 +33°C° 0 mm 0 m/s 732 mmHg 46%
    15:00 +32°C° 0 mm 0 m/s 732 mmHg 48%
    16:00 +32°C° 0 mm 0 m/s 731 mmHg 50%
    17:00 +31°C° 0 mm 0 m/s 732 mmHg 55%
    18:00 +29°C° 0 mm 0 m/s 732 mmHg 59%
    19:00 +27°C° 0 mm 0 m/s 732 mmHg 64%
    20:00 +28°C° 0 mm 1 m/s 733 mmHg 68%
    21:00 +28°C° 0 mm 1 m/s 733 mmHg 73%
    22:00 +27°C° 0 mm 1 m/s 734 mmHg 77%
    23:00 +26°C° 0 mm 1 m/s 734 mmHg 79%

    26 Martie, Marţi

    Timp Temperatura Precipitaţii Vânt Presiune Umiditate
    00:00 +26°C° 0 mm 1 m/s 733 mmHg 82%
    01:00 +25°C° 0 mm 1 m/s 733 mmHg 84%
    02:00 +25°C° 0 mm 1 m/s 733 mmHg 87%
    03:00 +25°C° 0 mm 1 m/s 733 mmHg 90%
    04:00 +25°C° 0 mm 1 m/s 732 mmHg 94%
    05:00 +25°C° 0 mm 1 m/s 733 mmHg 93%
    06:00 +25°C° 0 mm 1 m/s 734 mmHg 92%
    07:00 +26°C° 0 mm 1 m/s 734 mmHg 92%
    08:00 +27°C° 0 mm 1 m/s 735 mmHg 86%
    09:00 +28°C° 0 mm 1 m/s 735 mmHg 80%
    10:00 +29°C° 0 mm 1 m/s 735 mmHg 74%
    11:00 +32°C° 0 mm 1 m/s 735 mmHg 65%
    12:00 +33°C° 0 mm 0 m/s 734 mmHg 56%
    13:00 +35°C° 0 mm 0 m/s 733 mmHg 46%
    14:00 +35°C° 0 mm 0 m/s 732 mmHg 45%
    15:00 +35°C° 0 mm 0 m/s 732 mmHg 44%
    16:00 +35°C° 0 mm 0 m/s 731 mmHg 43%
    17:00 +32°C° 0 mm 0 m/s 732 mmHg 51%
    18:00 +30°C° 0 mm 0 m/s 732 mmHg 59%
    19:00 +28°C° 0 mm 0 m/s 733 mmHg 67%
    20:00 +27°C° 0.1 mm 0 m/s 733 mmHg 72%
    21:00 +26°C° 0.1 mm 0 m/s 733 mmHg 76%
    22:00 +27°C° 0.1 mm 1 m/s 734 mmHg 81%
    23:00 +27°C° 0.1 mm 1 m/s 734 mmHg 83%

    27 Martie, Miercuri

    Timp Temperatura Precipitaţii Vânt Presiune Umiditate
    00:00 +26°C° 0.1 mm 1 m/s 733 mmHg 86%
    01:00 +26°C° 0.1 mm 1 m/s 733 mmHg 88%
    02:00 +24°C° 0 mm 0 m/s 733 mmHg 89%
    03:00 +24°C° 0 mm 0 m/s 732 mmHg 89%
    04:00 +24°C° 0 mm 0 m/s 732 mmHg 89%
    05:00 +24°C° 0 mm 0 m/s 733 mmHg 89%
    06:00 +24°C° 0 mm 0 m/s 733 mmHg 90%
    07:00 +24°C° 0 mm 0 m/s 734 mmHg 90%
    08:00 +26°C° 0 mm 0 m/s 734 mmHg 83%
    09:00 +28°C° 0 mm 0 m/s 735 mmHg 77%
    10:00 +29°C° 0 mm 0 m/s 735 mmHg 70%
    11:00 +32°C° 0 mm 0 m/s 734 mmHg 61%
    12:00 +34°C° 0 mm 0 m/s 734 mmHg 52%
    13:00 +36°C° 0 mm 0 m/s 733 mmHg 44%
    14:00 +36°C° 0 mm 0 m/s 732 mmHg 43%
    15:00 +37°C° 0 mm 1 m/s 732 mmHg 43%
    16:00 +37°C° 0 mm 1 m/s 731 mmHg 42%
    17:00 +35°C° 0 mm 1 m/s 732 mmHg 50%
    18:00 +31°C° 0 mm 0 m/s 732 mmHg 58%
    19:00 +29°C° 0 mm 0 m/s 732 mmHg 65%
    20:00 +27°C° 0.8 mm 0 m/s 733 mmHg 73%
    21:00 +28°C° 0.8 mm 1 m/s 733 mmHg 80%
    22:00 +27°C° 0.8 mm 1 m/s 734 mmHg 87%
    23:00 +27°C° 0.9 mm 1 m/s 734 mmHg 89%
    Arată mai mult